Back to catalog

DELTA 1 DEB

AliveSSO
NORAD 10662·DEBRIS·🇺🇸 United States

Launched Jul 29, 1976 from Vandenberg Space Force Base

Loading…

Next Passes (next 24 hours)

TLE

FreshSource: Space-Track

Epoch: Sep 14, 2026, 15:18 UTC

1 10662U 76077Y   26257.63798404  .00000582  00000-0  20299-2 0  9994
2 10662 100.8065 307.7855 0244515   6.8107 146.5284 12.92257829348850

Track DELTA 1 DEB in real time with AllMySat

Download on the App Store